Powrót do katalogu

CZ-6A DEB

AktywnyPO
NORAD 60974·DEBRIS·🇨🇳 China

Wystrzelony Aug 6, 2024 z Taiyuan Satellite Launch Center

Loading…

Następne Przeloty (najbliższe 24 godziny)

TLE

ŚwieżeSource: Space-Track

Epoka: Sep 14, 2026, 08:49 UTC

1 60974U 24140LZ  26257.36746166  .00001072  00000-0  30472-3 0  9997
2 60974  88.7366 236.7979 0072359  41.5411 319.1258 14.43109212109153

Śledź CZ-6A DEB w czasie rzeczywistym z AllMySat

Download on the App Store